Weather History for Oklahoma City, OK

Change the Weather History Date:

Tuesday, May 14, 2013

  Actual Average Record
Temperature  
Mean Temperature 76 °F 69 °F  
Max Temperature 87 °F 80 °F 92 °F (1952)
Min Temperature 64 °F 59 °F 41 °F (1953)
Cooling Degree Days 11 5  
Month to date cooling degree days 26 58  
Year to date cooling degree days 54 124  
Growing Degree Days 26 (Base 50)    
Moisture  
Dew Point 50 °F    
Average Humidity 41    
Maximum Humidity 53    
Minimum Humidity 29    
Precipitation  
Precipitation 0.00 in 0.15 in 2.48 in (1986)
Month to date precipitation 0.64 1.99  
Year to date precipitation 13.16 11.09  
Sea Level Pressure  
Sea Level Pressure 29.97 in    
Wind  
Wind Speed 15 mph (SSW)    
Max Wind Speed 25 mph    
Max Gust Speed 33 mph    
Visibility 10 miles    
Events      
T = Trace of Precipitation, MM = Missing Value Source: NWS Daily Summary

Daily Weather History Graph

Daily Weather History Graph

Search for Another Location

Airport:

Trip Planner

Search our weather history database for the weather conditions in past years. The results will help you decide how hot, cold, wet, or windy it might be!

Date:

Astronomy

May. 14, 2013 Rise Set
Actual Time 6:26 AM CDT 8:27 PM CDT
Civil Twilight 5:58 AM CDT 8:55 PM CDT
Nautical Twilight 5:24 AM CDT 9:30 PM CDT
Astronomical Twilight 4:47 AM CDT 10:06 PM CDT
Moon 10:07 AM CDT (5/14) No Moon Set
Length of Visible Light 14h 57m
Length of Day
14h 00m
Waxing Crescent, 19% of the Moon is Illuminated
May 14
Waxing Crescent
May 17
First Quarter
May 24
Full
May 31
Last Quarter
Jun 8
New

Hourly Weather History & Observations

Time (CDT) Temp. Heat Index Dew Point Humidity Pressure Visibility Wind Dir Wind Speed Gust Speed Precip Events Conditions
12:52 AM 70.0 °F - 43.0 °F 38% 30.01 in 10.0 mi SSW 13.8 mph - N/A   Clear
1:52 AM 70.0 °F - 43.0 °F 38% 30.00 in 10.0 mi SSW 13.8 mph - N/A   Clear
2:52 AM 69.1 °F - 42.1 °F 38% 29.99 in 10.0 mi SSW 16.1 mph - N/A   Clear
3:52 AM 66.0 °F - 43.0 °F 43% 29.99 in 10.0 mi SSW 12.7 mph - N/A   Clear
4:52 AM 64.9 °F - 44.1 °F 47% 29.99 in 10.0 mi SW 13.8 mph - N/A   Clear
5:52 AM 64.9 °F - 44.1 °F 47% 29.99 in 10.0 mi SW 13.8 mph - N/A   Clear
6:52 AM 64.0 °F - 46.0 °F 52% 30.01 in 10.0 mi SSW 11.5 mph - N/A   Clear
7:52 AM 68.0 °F - 46.9 °F 47% 30.03 in 10.0 mi SW 13.8 mph - N/A   Clear
8:52 AM 73.0 °F - 50.0 °F 44% 30.03 in 10.0 mi WSW 16.1 mph 21.9 mph N/A   Clear
9:52 AM 77.0 °F - 54.0 °F 45% 30.04 in 10.0 mi WSW 16.1 mph - N/A   Clear
10:52 AM 80.1 °F 80.4 °F 57.0 °F 45% 30.03 in 10.0 mi SW 12.7 mph - N/A   Clear
11:52 AM 82.9 °F 82.1 °F 55.9 °F 39% 30.03 in 10.0 mi WSW 17.3 mph - N/A   Clear
12:52 PM 84.0 °F 83.0 °F 55.9 °F 38% 30.00 in 10.0 mi SSW 17.3 mph 24.2 mph N/A   Clear
1:52 PM 84.9 °F 83.7 °F 55.9 °F 37% 29.98 in 10.0 mi South 16.1 mph 26.5 mph N/A   Clear
2:52 PM 86.0 °F 84.0 °F 53.1 °F 32% 29.96 in 10.0 mi SSW 17.3 mph 25.3 mph N/A   Clear
3:52 PM 87.1 °F - 52.0 °F 30% 29.93 in 10.0 mi South 13.8 mph 28.8 mph N/A   Clear
4:52 PM 86.0 °F - 51.1 °F 30% 29.91 in 10.0 mi South 18.4 mph 25.3 mph N/A   Clear
5:52 PM 86.0 °F - 50.0 °F 29% 29.89 in 10.0 mi SSW 17.3 mph 23.0 mph N/A   Clear
6:52 PM 82.9 °F - 51.1 °F 33% 29.88 in 10.0 mi South 12.7 mph - N/A   Clear
7:52 PM 79.0 °F - 53.1 °F 40% 29.87 in 10.0 mi South 12.7 mph - N/A   Clear
8:52 PM 75.9 °F - 55.0 °F 48% 29.87 in 10.0 mi SSE 11.5 mph - N/A   Clear
9:52 PM 73.9 °F - 55.9 °F 53% 29.89 in 10.0 mi SSE 12.7 mph - N/A   Clear
10:52 PM 73.0 °F - 55.0 °F 53% 29.91 in 10.0 mi South 13.8 mph 20.7 mph N/A   Clear
11:52 PM 72.0 °F - 53.1 °F 51% 29.91 in 10.0 mi South 12.7 mph 21.9 mph N/A   Scattered Clouds